{"data":{"norad_id":66847,"epoch":"2026-05-25T03:24:49.955040Z","epoch_age_seconds":52813,"freshness":"FRESH","line1":"1 66847U 25280AC  26145.14224485  .00004318  00000+0  36937-3 0  9992","line2":"2 66847  70.0007 141.8564 0003934 267.8415  92.2294 14.98339874 27528","mean_motion":14.98339874,"eccentricity":0.0003934,"inclination_deg":70.0007,"raan_deg":141.8564,"arg_perigee_deg":267.8415,"mean_anomaly_deg":92.2294,"bstar":0.00036937,"rev_number":2752,"period_min":96.106365784403,"perigee_km":569.29116271053,"apogee_km":574.75955045269,"semimajor_km":6950.1623565816,"source":"CELESTRAK","updated_at":"2026-05-25T13:38:21.339549Z"}}